Savannah, GA

7:38 PM EST on January 21, 2017 (GMT -0500)
Savannah/Hilton Head International Airport

Weather History for KSAV - January, 2014

Change the Weather History Date:

Thursday, January 16, 2014

  Actual Average Record
Temperature  
Mean Temperature 41 °F 49 °F  
Max Temperature 49 °F 60 °F 82 °F (2013)
Min Temperature 33 °F 38 °F 18 °F (1893)
Degree Days  
Heating Degree Days 24 16  
Month to date heating degree days 262 256  
Since 1 July heating degree days 788 946  
Cooling Degree Days 0 0  
Month to date cooling degree days 3 0  
Year to date cooling degree days 3 0  
Moisture  
Dew Point 20 °F    
Average Humidity 45    
Maximum Humidity 69    
Minimum Humidity 21    
Precipitation  
Precipitation T in 0.12 in 2.53 in (1896)
Month to date precipitation 2.10 1.80  
Year to date precipitation 2.10 1.80  
Sea Level Pressure  
Sea Level Pressure 30.07 in    
Wind  
Wind Speed 9 mph (WNW)    
Max Wind Speed 16 mph    
Max Gust Speed 23 mph    
Visibility 10 miles    
Events      
T = Trace of Precipitation, MM = Missing Value Source: NWS Daily Summary

Daily Weather History Graph

Daily Weather History Graph

Search for Another Location

Airport or City:

Trip Planner

Search our weather history database for the weather conditions in past years. The results will help you decide how hot, cold, wet, or windy it might be!

Date:

Astronomy

Jan. 16, 2014 Rise Set
Actual Time 7:25 AM EST 5:43 PM EST
Civil Twilight 6:59 AM EST 6:10 PM EST
Nautical Twilight 6:29 AM EST 6:40 PM EST
Astronomical Twilight 5:59 AM EST 7:09 PM EST
Moon 6:28 PM EST (1/16) 7:23 AM EST (1/16)
Length of Visible Light 11h 10m
Length of Day
10h 18m
Full, 100% of the Moon is Illuminated
Jan 16
Full
Jan 24
Last Quarter
Jan 30
New
Feb 6
First Quarter
Feb 14
Full

Hourly Weather History & Observations

Time (EST) Temp. Windchill Dew Point Humidity Pressure Visibility Wind Dir Wind Speed Gust Speed Precip Events Conditions
12:53 AM 46.9 °F - 28.0 °F 48% 29.98 in 10.0 mi NW 11.5 mph - 0.00 in   Overcast
1:53 AM 46.0 °F 40.6 °F 26.1 °F 46% 30.00 in 10.0 mi NW 11.5 mph - N/A   Overcast
2:53 AM 45.0 °F 39.3 °F 21.0 °F 39% 30.00 in 10.0 mi NW 11.5 mph - N/A   Overcast
3:53 AM 42.1 °F 36.6 °F 19.9 °F 41% 30.02 in 10.0 mi NW 9.2 mph - 0.00 in   Partly Cloudy
4:53 AM 39.0 °F 31.8 °F 21.9 °F 50% 30.04 in 10.0 mi WNW 11.5 mph - 0.00 in   Clear
5:53 AM 37.0 °F 30.4 °F 23.0 °F 57% 30.04 in 10.0 mi WNW 9.2 mph - N/A   Clear
6:53 AM 35.1 °F 28.6 °F 23.0 °F 61% 30.06 in 10.0 mi WNW 8.1 mph - N/A   Clear
7:53 AM 34.0 °F 27.2 °F 24.1 °F 67% 30.08 in 10.0 mi West 8.1 mph - N/A   Clear
8:53 AM 36.0 °F 27.1 °F 21.9 °F 57% 30.09 in 9.0 mi WNW 13.8 mph - N/A   Clear
9:53 AM 39.9 °F 32.9 °F 19.9 °F 45% 30.10 in 10.0 mi WNW 11.5 mph 17.3 mph N/A   Clear
10:53 AM 42.1 °F 34.9 °F 16.0 °F 35% 30.11 in 10.0 mi NW 13.8 mph - N/A   Clear
11:53 AM 45.0 °F 39.3 °F 12.9 °F 27% 30.07 in 10.0 mi NNW 11.5 mph - N/A   Clear
12:53 PM 46.9 °F - 9.0 °F 21% 30.05 in 10.0 mi WNW 10.4 mph - N/A   Clear
1:53 PM 48.0 °F - 12.0 °F 24% 30.03 in 10.0 mi NW 12.7 mph - N/A   Clear
2:53 PM 48.0 °F - 12.9 °F 24% 30.04 in 10.0 mi West 13.8 mph 19.6 mph N/A   Clear
3:53 PM 48.0 °F - 14.0 °F 26% 30.05 in 10.0 mi WNW 9.2 mph - N/A   Clear
4:53 PM 48.0 °F - 12.9 °F 24% 30.06 in 10.0 mi NW 9.2 mph - N/A   Clear
5:53 PM 42.1 °F 39.2 °F 18.0 °F 38% 30.08 in 10.0 mi West 4.6 mph - N/A   Clear
6:53 PM 42.1 °F 40.2 °F 18.0 °F 38% 30.10 in 10.0 mi SW 3.5 mph - N/A   Clear
7:53 PM 39.9 °F - 21.9 °F 49% 30.11 in 10.0 mi Calm Calm - N/A   Clear
8:53 PM 36.0 °F 33.3 °F 23.0 °F 59% 30.12 in 10.0 mi West 3.5 mph - N/A   Clear
9:53 PM 37.0 °F 34.5 °F 23.0 °F 57% 30.13 in 10.0 mi South 3.5 mph - N/A   Clear
10:53 PM 37.0 °F 34.5 °F 24.1 °F 59% 30.14 in 10.0 mi WSW 3.5 mph - N/A   Clear
11:53 PM 36.0 °F 30.3 °F 23.0 °F 59% 30.13 in 10.0 mi South 6.9 mph - N/A   Clear